Regional Weather Roundup
Issued by NWS

Home | Current Version | Previous Version | Text Only | Print | Product List | Glossary Off
Versions: 1 2 3 4 5 6 7 8 9 10 11 12 13 14 15 16 17 18 19 20 21 22 23 24 25 26 27 28 29 30 31 32 33 34 35 36 37 38 39 40 41 42 43 44 45 46 47 48 49 50

000
ASUS43 KFSD 231210
RWRSD

WEATHER ROUNDUP FOR SOUTH DAKOTA
NATIONAL WEATHER SERVICE SIOUX FALLS SD
700 AM CDT WED APR 23 2014

NOTE: "FAIR" INDICATES FEW OR NO CLOUDS BELOW 12,000 FEET WITH NO
SIGNIFICANT WEATHER AND/OR OBSTRUCTIONS TO VISIBILITY.


SDZ001>005-009-010-012>017-231300-
NORTHWEST AND NORTH CENTRAL SOUTH DAKOTA

CITY           SKY/WX    TMP DP  RH WIND       PRES   REMARKS
BUFFALO          N/A     57  42  57 SE17      29.33S
MOBRIDGE       CLOUDY    50  39  66 SE17      29.56F
$$

SDZ012>016-024>037-041>051-057-063-072>074-231300-
SOUTHWEST AND SOUTH CENTRAL SOUTH DAKOTA

CITY           SKY/WX    TMP DP  RH WIND       PRES   REMARKS
RAPID CTY ARPT CLOUDY    56  42  59 S7        29.44F
PIERRE         CLOUDY    53  34  48 SE25G33   29.54F
CUSTER         CLOUDY    52  36  54 W13G21    29.56S
ELLSWORTH AFB  CLOUDY    56  43  61 S6        29.43F
PHILIP         CLOUDY    53  38  56 E10       29.46S
PINE RIDGE     CLOUDY    57  47  69 SW13      29.50R
SPEARFISH      FAIR      63  37  39 SW23G31   29.45F
WINNER         FAIR      56  32  40 SE22G30   29.56F
$$

SDZ004>011-016>023-039-040-231300-
NORTHEAST SOUTH DAKOTA

CITY           SKY/WX    TMP DP  RH WIND       PRES   REMARKS
ABERDEEN       CLOUDY    50  36  58 SE23G33   29.78R
WATERTOWN      CLOUDY    46  37  71 E14G23    29.85R
SISSETON         N/A     43  39  86 SE18      29.89S
$$

SDZ017-020-022-023-036>040-048>070-231300-
SOUTHEAST SOUTH DAKOTA

CITY           SKY/WX    TMP DP  RH WIND       PRES   REMARKS
SIOUX FALLS    CLOUDY    49  37  63 SE26G36   29.85F
HURON          CLOUDY    52  34  50 SE23G38   29.73R
CHAMBERLAIN      N/A     53  34  48 SE30G43   29.61F
MITCHELL       MOCLDY    51  36  56 SE25G43   29.74F
YANKTON        MOCLDY    52  34  50 E20G28    29.82F
$$

ABBREVIATIONS USED IN REMARKS
   TC - TEMPERATURE IN CELSIUS
  WCI - WIND CHILL INDEX
   HX - HEAT INDEX
  VSB - VISIBILITY




USA.gov is the U.S. government's official web portal to all federal, state and local government web resources and services.